Regional Weather Roundup
Issued by NWS

Home | Current Version | Previous Version | Text Only | Print | Product List | Glossary Off
Versions: 1 2 3 4 5 6 7 8 9 10 11 12 13 14 15 16 17 18 19 20 21 22 23 24 25 26 27 28 29 30 31 32 33 34 35 36 37 38 39 40 41 42 43 44 45 46 47 48 49 50

000
ASUS43 KDTX 270510
RWRMI
MICHIGAN HOURLY REGIONAL WEATHER ROUNDUP
NATIONAL WEATHER SERVICE DETROIT/PONTIAC MI
100 AM EDT SAT MAY 27 2017

NOTE: "FAIR" INDICATES FEW OR NO CLOUDS BELOW 12,000 FEET WITH NO
SIGNIFICANT WEATHER AND/OR OBSTRUCTION TO VISIBILITY.

MIZ047>049-052>055-059>063-066>070-074>076-081>083-270600-
SOUTHEAST LOWER MICHIGAN

CITY           SKY/WX    TMP DP  RH WIND       PRES   REMARKS
ADRIAN         LGT RAIN  60  59  96 E5        29.89F
ALMA           MOCLDY    58  57  96 CALM      29.88R
ANN ARBOR      CLOUDY    57  57 100 SW3       29.88S
BAD AXE        CLOUDY    52  51  97 SE3       29.90S
CARO           PTCLDY    55  54  98 CALM      29.88S
DETROIT CITY   CLOUDY    59  56  89 E3        29.88S
DETROIT        CLOUDY    61  57  87 CALM      29.89R
FLINT          CLOUDY    58  55  90 E3        29.88S
GROSSE ILE     CLOUDY    59  56  88 CALM      29.88S
HILLSDALE      LGT RAIN  59  55  88 NE5       29.87F
HOWELL         CLOUDY    59  53  80 CALM      29.88S

CITY           SKY/WX    TMP DP  RH WIND       PRES   REMARKS
JACKSON        LGT RAIN  60  57  89 S6        29.88S
LAMBERTVILLE   RAIN      60  58  92 CALM      29.89R
LANSING        CLOUDY    62  53  72 E3        29.87S
LAPEER         FAIR      53  52  97 CALM      29.89S FOG
MASON          CLOUDY    61  55  82 SE3       29.88S
MONROE         CLOUDY    60  58  94 CALM      29.88R
MT. CLEMENS    CLOUDY    57  57 100 E3        29.88R
PONTIAC        CLOUDY    58  55  90 CALM      29.88R
PORT HOPE        N/A     50  49  96 S5        29.87F
PORT HURON     FOG       50  48  93 CALM      29.90R VSB 1
TRI CITIES     CLOUDY    58  55  90 CALM      29.88R
MIDLAND        FAIR      54  53  96 CALM      29.87R
TROY           CLOUDY    61  54  77 CALM      29.90S
SAGINAW HB     CLOUDY    55  52  88 CALM      29.87S
$$
MIZ043>046-050>051-056>058-064>065-071>073-077>080-270600-
SOUTHWEST LOWER MICHIGAN

CITY           SKY/WX    TMP DP  RH WIND       PRES   REMARKS
BATTLE CREEK   CLOUDY    61  57  87 E7        29.87S
BENTON HARBOR  LGT RAIN  59  56  89 E5        29.85S FOG
BIG RAPIDS     PTCLDY    57  51  81 CALM      29.87S
COLDWATER      CLOUDY    58  58  99 CALM      29.86F
FREMONT        FAIR      55  51  89 CALM      29.88R
HOLLAND        CLOUDY    56  54  93 CALM      29.87S
GRAND RAPIDS   CLOUDY    61  61 100 CALM      29.86F
IONIA          FAIR      61  55  81 CALM      29.86S
KALAMAZOO      CLOUDY    61  57  87 CALM      29.86F
LUDINGTON      CLOUDY    51  51 100 W5        29.88R
MARSHALL       LGT RAIN  60  59  98 E3        29.87F
MOUNT PLEASANT CLOUDY    57  54  89 CALM      29.86S
MUSKEGON       CLOUDY    57  54  89 CALM      29.87S
SOUTH HAVEN    CLOUDY    57  56  97 N3        29.85F
$$
MIZ016>042-270600-
NORTHERN LOWER MICHIGAN

CITY           SKY/WX    TMP DP  RH WIND       PRES   REMARKS
ALPENA         CLEAR     50  49  96 CALM      29.88F
BEAVER ISLAND  MOCLDY    51  49  93 CALM      29.89S
BELLAIRE       CLOUDY    50  49  94 CALM      29.89S
CADILLAC       CLOUDY    51  50  97 CALM      29.88S
CHARLEVOIX     CLOUDY    53  52  96 CALM      29.92S
FRANKFORT      CLOUDY    48  45  89 CALM      29.88S
GAYLORD        CLOUDY    56  50  80 NE3       29.89S
GRAYLING       PTCLDY    50  49  95 CALM      29.89S
HARBOR SPRINGS PTCLDY    49  49 100 CALM      29.89S
HOUGHTON LAKE  PTCLDY    53  51  93 E3        29.89R
MANISTEE       PTCLDY    48  47  96 CALM      29.88S
OSCODA         PTCLDY    49  46  92 W5        29.88S
PELLSTON       PTCLDY    48  46  93 W3        29.89S
ROGERS CITY    CLEAR     55  52  87 CALM      29.89S
TRAVERSE CITY  CLOUDY    51  49  92 CALM      29.87S
$$
MIZ007>008-015-270600-
EASTERN UPPER MICHIGAN

CITY           SKY/WX    TMP DP  RH WIND       PRES   REMARKS
KINROSS        PTCLDY    57  51  80 S6        29.88R
MACKINAC ISLAN PTCLDY    52  50  93 W5        29.88S
NEWBERRY       CLOUDY    53  53  97 SW6       29.88S
S. S. MARIE    CLEAR     55  50  83 CALM      29.87R
MUNISING         N/A     57  56  96 SW5       29.85F
$$
MIZ004>006-011>014-085-270600-
CENTRAL UPPER MICHIGAN

CITY           SKY/WX    TMP DP  RH WIND       PRES   REMARKS
MANISTIQUE     CLOUDY    52  48  87 CALM      29.86F
ESCANABA       CLOUDY    56  53  90 SE6       29.86S
MENOMINEE      CLOUDY    54  51  90 CALM      29.86S
SAWYER-GWINN   CLOUDY    56  54  94 S6        29.87S
$$
MIZ001>003-009>011-084-270600-
WESTERN UPPER MICHIGAN

CITY           SKY/WX    TMP DP  RH WIND       PRES   REMARKS
IRON MOUNTAIN  CLOUDY    56  52  86 CALM      29.85F
HOUGHTON       MOCLDY    53  48  83 E3        29.81S
COPPER HARBOR    N/A     54  51  90 W3        29.80F
IRONWOOD       CLEAR     60  55  83 S5        29.81S
$$

ABBREVIATIONS USED IN REMARKS
   TC - TEMPERATURE IN CELSIUS
  WCI - WIND CHILL INDEX
   HX - HEAT INDEX
  VSB - VISIBILITY





USA.gov is the U.S. government's official web portal to all federal, state and local government web resources and services.